| time (UTC) | temp F | wind direction | speed knots | gust knots | rain 1hr in | rain 24hr in | rain mn in | humidity % | barometer mb |
| 20260508025505 | 60 | 71 | 0.0 | 0.0 | 0.00 | 0.00 | 0.00 | 85 | 1015.9 |
| 20260508025041 | 61 | 71 | 0.0 | 0.0 | 0.00 | 0.00 | 0.00 | 85 | 1015.6 |
| 20260508024552 | 61 | 71 | 0.0 | 0.0 | 0.00 | 0.00 | 0.00 | 84 | 1015.6 |
| 20260508024026 | 61 | 71 | 0.0 | 0.0 | 0.00 | 0.00 | 0.00 | 84 | 1015.7 |
| 20260508023501 | 61 | 71 | 0.0 | 0.0 | 0.00 | 0.00 | 0.00 | 84 | 1015.4 |
| 20260508023010 | 61 | 71 | 0.0 | 0.0 | 0.00 | 0.00 | 0.00 | 84 | 1015.1 |
| 20260508022543 | 61 | 71 | 0.0 | 0.0 | 0.00 | 0.00 | 0.00 | 83 | 1015.0 |
| 20260508022020 | 61 | 71 | 0.0 | 0.0 | 0.00 | 0.00 | 0.00 | 83 | 1015.0 |
| 20260508021526 | 61 | 71 | 0.0 | 0.0 | 0.00 | 0.00 | 0.00 | 83 | 1015.1 |
| 20260508021100 | 61 | 71 | 0.0 | 0.0 | 0.00 | 0.00 | 0.00 | 82 | 1015.0 |
| 20260508020530 | 61 | 71 | 0.0 | 0.0 | 0.00 | 0.00 | 0.00 | 83 | 1015.0 |
| 20260508020039 | 61 | 71 | 0.0 | 0.0 | 0.00 | 0.00 | 0.00 | 82 | 1015.0 |
| 20260508015508 | 62 | 71 | 0.0 | 0.0 | 0.00 | 0.00 | 0.00 | 82 | 1015.1 |
| 20260508015048 | 62 | 71 | 0.0 | 0.0 | 0.00 | 0.00 | 0.00 | 82 | 1014.9 |
| 20260508014550 | 62 | 71 | 0.0 | 0.0 | 0.00 | 0.00 | 0.00 | 81 | 1014.8 |
| 20260508014023 | 62 | 71 | 0.0 | 0.0 | 0.00 | 0.00 | 0.00 | 82 | 1014.9 |
| 20260508013605 | 62 | 71 | 0.0 | 0.0 | 0.00 | 0.00 | 0.00 | 81 | 1015.1 |
| 20260508013106 | 62 | 71 | 0.0 | 0.0 | 0.00 | 0.00 | 0.00 | 81 | 1015.1 |
| 20260508012540 | 62 | 71 | 0.0 | 0.0 | 0.00 | 0.00 | 0.00 | 81 | 1015.1 |
| 20260508012017 | 63 | 71 | 0.0 | 0.0 | 0.00 | 0.00 | 0.00 | 80 | 1015.0 |
| 20260508011525 | 63 | 71 | 0.0 | 0.0 | 0.00 | 0.00 | 0.00 | 79 | 1014.9 |
| 20260508011103 | 63 | 71 | 0.0 | 0.0 | 0.00 | 0.00 | 0.00 | 79 | 1015.0 |
| 20260508010535 | 63 | 71 | 0.0 | 0.0 | 0.00 | 0.00 | 0.00 | 78 | 1015.0 |
| 20260508010041 | 64 | 71 | 0.0 | 0.0 | 0.00 | 0.00 | 0.00 | 77 | 1015.3 |
| 20260508005513 | 64 | 71 | 0.0 | 0.0 | 0.00 | 0.00 | 0.00 | 76 | 1015.5 |
| 20260508005050 | 64 | 71 | 0.0 | 0.0 | 0.00 | 0.00 | 0.00 | 76 | 1015.4 |
| 20260508004557 | 64 | 71 | 0.0 | 0.0 | 0.00 | 0.00 | 0.00 | 75 | 1015.5 |
| 20260508004031 | 64 | 71 | 0.0 | 0.0 | 0.00 | 0.00 | 0.00 | 75 | 1015.7 |
| 20260508003504 | 65 | 71 | 0.0 | 0.0 | 0.00 | 0.00 | 0.00 | 74 | 1015.5 |
| 20260508003056 | 65 | 71 | 0.0 | 0.0 | 0.00 | 0.00 | 0.00 | 73 | 1015.8 |
| 20260508002529 | 65 | 71 | 0.0 | 0.0 | 0.00 | 0.00 | 0.00 | 72 | 1015.6 |
| 20260508002002 | 65 | 71 | 0.0 | 0.0 | 0.00 | 0.00 | 0.00 | 73 | 1015.8 |
| 20260508001557 | 65 | 71 | 0.9 | 0.0 | 0.00 | 0.00 | 0.00 | 72 | 1015.8 |
| 20260508001028 | 65 | 71 | 0.9 | 0.0 | 0.00 | 0.00 | 0.00 | 70 | 1016.1 |
| 20260508000503 | 65 | 71 | 0.9 | 0.0 | 0.00 | 0.00 | 0.00 | 70 | 1016.1 |
| 20260508000052 | 66 | 72 | 0.9 | 0.0 | 0.00 | 0.00 | 0.00 | 70 | 1016.1 |
| 20260507235528 | 66 | 333 | 0.0 | 0.0 | 0.00 | 0.00 | 0.00 | 71 | 1016.6 |
| 20260507235108 | 66 | 333 | 0.0 | 0.0 | 0.00 | 0.00 | 0.00 | 71 | 1016.6 |
| 20260507234603 | 66 | 333 | 0.0 | 0.0 | 0.00 | 0.00 | 0.00 | 71 | 1016.7 |
| 20260507234029 | 66 | 58 | 0.0 | 0.0 | 0.00 | 0.00 | 0.00 | 72 | 1016.8 |
| 20260507233507 | 66 | 58 | 0.0 | 0.0 | 0.00 | 0.00 | 0.00 | 71 | 1016.8 |
| 20260507233056 | 66 | 66 | 0.0 | 0.0 | 0.00 | 0.00 | 0.00 | 70 | 1016.7 |
| 20260507232525 | 66 | 66 | 0.0 | 0.0 | 0.00 | 0.00 | 0.00 | 70 | 1016.2 |
| 20260507232002 | 66 | 66 | 0.9 | 0.0 | 0.00 | 0.00 | 0.00 | 70 | 1015.7 |
| 20260507231558 | 66 | 66 | 0.9 | 0.0 | 0.00 | 0.00 | 0.00 | 70 | 1015.6 |
| 20260507231035 | 66 | 36 | 0.0 | 0.0 | 0.00 | 0.00 | 0.00 | 70 | 1016.1 |
| 20260507230509 | 66 | 36 | 0.0 | 0.0 | 0.00 | 0.00 | 0.00 | 70 | 1016.2 |
| 20260507230100 | 66 | 90 | 0.0 | 0.0 | 0.00 | 0.00 | 0.00 | 70 | 1016.2 |
| 20260507225531 | 66 | 90 | 0.0 | 0.0 | 0.00 | 0.00 | 0.00 | 70 | 1016.1 |
| 20260507225008 | 66 | 92 | 0.9 | 0.0 | 0.00 | 0.00 | 0.00 | 69 | 1016.4 |
| 20260507224518 | 66 | 92 | 0.9 | 0.0 | 0.00 | 0.00 | 0.00 | 70 | 1016.5 |
| 20260507224054 | 66 | 59 | 0.9 | 0.0 | 0.00 | 0.00 | 0.00 | 70 | 1016.8 |
| 20260507223527 | 66 | 140 | 0.0 | 0.0 | 0.00 | 0.00 | 0.00 | 70 | 1016.9 |
| 20260507223028 | 66 | 140 | 0.0 | 0.0 | 0.00 | 0.00 | 0.00 | 70 | 1016.8 |
| 20260507222605 | 66 | 140 | 0.9 | 0.0 | 0.00 | 0.00 | 0.00 | 70 | 1016.7 |
| 20260507222036 | 66 | 140 | 0.9 | 0.0 | 0.00 | 0.00 | 0.00 | 70 | 1016.7 |
| 20260507221541 | 66 | 65 | 0.9 | 0.0 | 0.00 | 0.00 | 0.00 | 69 | 1016.9 |
| 20260507221014 | 66 | 65 | 0.9 | 0.0 | 0.00 | 0.00 | 0.00 | 70 | 1016.6 |
| 20260507220552 | 65 | 63 | 0.9 | 0.0 | 0.00 | 0.00 | 0.00 | 71 | 1016.7 |
| 20260507220057 | 65 | 69 | 0.9 | 0.0 | 0.00 | 0.00 | 0.00 | 71 | 1016.7 |
| 20260507215534 | 65 | 15 | 0.9 | 0.0 | 0.00 | 0.00 | 0.00 | 71 | 1017.4 |
| 20260507215008 | 65 | 25 | 0.9 | 0.0 | 0.00 | 0.00 | 0.00 | 70 | 1017.6 |
| 20260507214508 | 65 | 321 | 0.9 | 0.0 | 0.00 | 0.00 | 0.00 | 72 | 1017.4 |
| 20260507214044 | 65 | 321 | 1.7 | 0.0 | 0.00 | 0.00 | 0.00 | 70 | 1017.7 |
| 20260507213523 | 65 | 321 | 0.9 | 0.0 | 0.00 | 0.00 | 0.00 | 71 | 1017.7 |
| 20260507213028 | 65 | 315 | 0.9 | 0.0 | 0.00 | 0.00 | 0.00 | 72 | 1017.5 |
| 20260507212606 | 65 | 315 | 0.9 | 0.0 | 0.00 | 0.00 | 0.00 | 70 | 1017.3 |
| 20260507212040 | 65 | 315 | 1.7 | 0.0 | 0.00 | 0.00 | 0.00 | 71 | 1017.2 |
| 20260507211539 | 65 | 315 | 1.7 | 0.0 | 0.00 | 0.00 | 0.00 | 70 | 1017.5 |
| 20260507211011 | 65 | 342 | 0.9 | 0.0 | 0.00 | 0.00 | 0.00 | 70 | 1017.4 |
| 20260507210547 | 65 | 344 | 0.9 | 0.0 | 0.00 | 0.00 | 0.00 | 70 | 1017.2 |
| 20260507210051 | 66 | 22 | 1.7 | 0.0 | 0.00 | 0.00 | 0.00 | 71 | 1016.9 |
| 20260507205523 | 65 | 72 | 1.7 | 0.0 | 0.00 | 0.00 | 0.00 | 69 | 1017.1 |
| 20260507205059 | 65 | 346 | 0.9 | 0.0 | 0.00 | 0.00 | 0.00 | 70 | 1017.4 |
| 20260507204501 | 65 | 346 | 0.9 | 0.0 | 0.00 | 0.00 | 0.00 | 71 | 1017.5 |
| 20260507204040 | 65 | 348 | 0.9 | 0.0 | 0.00 | 0.00 | 0.00 | 71 | 1017.5 |
| 20260507203522 | 65 | 5 | 0.9 | 0.0 | 0.00 | 0.00 | 0.00 | 71 | 1017.9 |
| 20260507203027 | 65 | 67 | 0.9 | 0.0 | 0.00 | 0.00 | 0.00 | 71 | 1017.8 |
| 20260507202502 | 65 | 9 | 0.0 | 0.0 | 0.00 | 0.00 | 0.00 | 71 | 1018.2 |
| 20260507202041 | 65 | 9 | 0.0 | 0.0 | 0.00 | 0.00 | 0.00 | 71 | 1018.3 |
| 20260507201537 | 64 | 9 | 0.9 | 0.0 | 0.00 | 0.00 | 0.00 | 72 | 1018.2 |
| 20260507201001 | 64 | 9 | 0.9 | 0.0 | 0.00 | 0.00 | 0.00 | 72 | 1017.9 |
| 20260507200540 | 64 | 282 | 0.9 | 0.0 | 0.00 | 0.00 | 0.00 | 72 | 1017.5 |
| 20260507200042 | 65 | 268 | 0.9 | 0.0 | 0.00 | 0.00 | 0.00 | 72 | 1017.7 |
| 20260507195501 | 65 | 268 | 0.9 | 0.0 | 0.00 | 0.00 | 0.00 | 72 | 1017.9 |
| 20260507195045 | 65 | 268 | 0.9 | 0.0 | 0.00 | 0.00 | 0.00 | 73 | 1018.2 |
| 20260507194531 | 65 | 268 | 0.0 | 0.0 | 0.00 | 0.00 | 0.00 | 71 | 1018.5 |
| 20260507194003 | 65 | 265 | 0.0 | 0.0 | 0.00 | 0.00 | 0.00 | 71 | 1018.7 |
| 20260507193545 | 65 | 350 | 0.9 | 0.0 | 0.00 | 0.00 | 0.00 | 71 | 1018.6 |
| 20260507193059 | 65 | 24 | 0.9 | 0.0 | 0.00 | 0.00 | 0.00 | 72 | 1019.0 |
| 20260507192523 | 65 | 40 | 0.9 | 0.0 | 0.00 | 0.00 | 0.00 | 71 | 1018.9 |
| 20260507192102 | 65 | 81 | 0.9 | 0.0 | 0.00 | 0.00 | 0.00 | 72 | 1018.5 |
| 20260507191506 | 64 | 21 | 1.7 | 0.0 | 0.00 | 0.00 | 0.00 | 73 | 1018.5 |
| 20260507191040 | 64 | 70 | 1.7 | 0.0 | 0.00 | 0.00 | 0.00 | 72 | 1018.5 |
| 20260507190511 | 64 | 333 | 1.7 | 0.0 | 0.00 | 0.00 | 0.00 | 73 | 1018.1 |
| 20260507190012 | 64 | 76 | 1.7 | 0.0 | 0.00 | 0.00 | 0.00 | 73 | 1018.4 |
| 20260507185547 | 63 | 64 | 1.7 | 0.0 | 0.00 | 0.00 | 0.00 | 73 | 1018.5 |
| 20260507185017 | 63 | 24 | 1.7 | 0.0 | 0.00 | 0.00 | 0.00 | 73 | 1018.8 |
| 20260507184502 | 63 | 118 | 1.7 | 0.0 | 0.00 | 0.00 | 0.00 | 73 | 1018.0 |
| 20260507184041 | 63 | 351 | 1.7 | 0.0 | 0.00 | 0.00 | 0.00 | 74 | 1018.2 |
| 20260507183510 | 64 | 360 | 1.7 | 0.0 | 0.00 | 0.00 | 0.00 | 73 | 1018.3 |
| 20260507183107 | 64 | 355 | 1.7 | 0.0 | 0.00 | 0.00 | 0.00 | 73 | 1018.3 |
| 20260507182542 | 64 | 39 | 1.7 | 0.0 | 0.00 | 0.00 | 0.00 | 74 | 1018.8 |
| 20260507182023 | 64 | 12 | 1.7 | 0.0 | 0.00 | 0.00 | 0.00 | 74 | 1018.2 |
| 20260507181527 | 63 | 67 | 1.7 | 0.0 | 0.00 | 0.00 | 0.00 | 74 | 1018.6 |
| 20260507181105 | 63 | 98 | 1.7 | 0.0 | 0.00 | 0.00 | 0.00 | 74 | 1018.9 |
| 20260507180541 | 63 | 313 | 1.7 | 0.0 | 0.00 | 0.00 | 0.00 | 74 | 1018.9 |
| 20260507180045 | 63 | 334 | 1.7 | 0.0 | 0.00 | 0.00 | 0.00 | 73 | 1019.3 |
| 20260507175515 | 63 | 17 | 1.7 | 0.0 | 0.00 | 0.00 | 0.00 | 75 | 1019.3 |
| 20260507175051 | 63 | 5 | 1.7 | 0.0 | 0.00 | 0.00 | 0.00 | 75 | 1019.6 |
| 20260507174607 | 63 | 76 | 1.7 | 0.0 | 0.00 | 0.00 | 0.00 | 76 | 1019.2 |
| 20260507174030 | 63 | 86 | 1.7 | 0.0 | 0.00 | 0.00 | 0.00 | 76 | 1018.4 |
| 20260507173503 | 62 | 67 | 2.6 | 0.0 | 0.00 | 0.00 | 0.00 | 77 | 1018.1 |
| 20260507173005 | 62 | 5 | 1.7 | 0.0 | 0.00 | 0.00 | 0.00 | 78 | 1018.7 |
| 20260507172547 | 62 | 350 | 1.7 | 0.0 | 0.00 | 0.00 | 0.00 | 80 | 1018.9 |
| 20260507172017 | 61 | 336 | 1.7 | 0.0 | 0.00 | 0.00 | 0.00 | 81 | 1019.2 |
| 20260507171521 | 61 | 336 | 1.7 | 0.0 | 0.00 | 0.00 | 0.00 | 80 | 1019.5 |
| 20260507171100 | 61 | 69 | 1.7 | 0.0 | 0.00 | 0.00 | 0.00 | 83 | 1019.1 |
| 20260507170530 | 60 | 69 | 1.7 | 0.0 | 0.00 | 0.00 | 0.00 | 83 | 1018.8 |
| 20260507170031 | 60 | 65 | 1.7 | 0.0 | 0.00 | 0.00 | 0.00 | 82 | 1018.6 |
| 20260507165503 | 60 | 51 | 1.7 | 0.0 | 0.00 | 0.00 | 0.00 | 82 | 1018.3 |
| 20260507165044 | 60 | 80 | 1.7 | 0.0 | 0.00 | 0.00 | 0.00 | 81 | 1019.1 |
| 20260507164601 | 60 | 347 | 0.9 | 0.0 | 0.00 | 0.00 | 0.00 | 81 | 1018.8 |
| 20260507164020 | 60 | 323 | 1.7 | 0.0 | 0.00 | 0.00 | 0.00 | 81 | 1019.1 |
| 20260507163559 | 60 | 328 | 1.7 | 0.0 | 0.00 | 0.00 | 0.00 | 81 | 1019.7 |
| 20260507163100 | 60 | 327 | 0.9 | 0.0 | 0.00 | 0.00 | 0.00 | 81 | 1020.6 |
| 20260507162533 | 60 | 327 | 0.0 | 0.0 | 0.00 | 0.00 | 0.00 | 81 | 1020.8 |
| 20260507162007 | 60 | 327 | 0.0 | 0.0 | 0.00 | 0.00 | 0.00 | 82 | 1020.8 |
| 20260507161508 | 60 | 327 | 0.9 | 0.0 | 0.00 | 0.00 | 0.00 | 82 | 1020.4 |
| 20260507161043 | 60 | 327 | 0.9 | 0.0 | 0.00 | 0.00 | 0.00 | 82 | 1020.3 |
| 20260507160520 | 60 | 342 | 0.9 | 0.0 | 0.00 | 0.00 | 0.00 | 82 | 1020.0 |
| 20260507160032 | 60 | 10 | 0.9 | 0.0 | 0.00 | 0.00 | 0.00 | 83 | 1019.8 |
| 20260507155555 | 60 | 10 | 0.9 | 0.0 | 0.00 | 0.00 | 0.00 | 83 | 1019.9 |
| 20260507155031 | 60 | 67 | 0.9 | 0.0 | 0.00 | 0.00 | 0.00 | 82 | 1019.9 |
| 20260507154538 | 59 | 73 | 1.7 | 0.0 | 0.00 | 0.00 | 0.00 | 82 | 1020.4 |
| 20260507154010 | 59 | 73 | 1.7 | 0.0 | 0.00 | 0.00 | 0.00 | 82 | 1020.6 |
| 20260507153544 | 59 | 5 | 1.7 | 0.0 | 0.00 | 0.00 | 0.00 | 83 | 1019.6 |
| 20260507153030 | 59 | 326 | 1.7 | 0.0 | 0.00 | 0.00 | 0.00 | 83 | 1020.0 |
| 20260507152507 | 59 | 325 | 0.9 | 0.0 | 0.00 | 0.00 | 0.00 | 82 | 1020.5 |
| 20260507152042 | 59 | 325 | 1.7 | 0.0 | 0.00 | 0.00 | 0.00 | 83 | 1020.3 |
| 20260507151546 | 59 | 325 | 1.7 | 0.0 | 0.00 | 0.00 | 0.00 | 83 | 1019.6 |
| 20260507151018 | 59 | 321 | 0.9 | 0.0 | 0.00 | 0.00 | 0.00 | 84 | 1019.9 |
| 20260507150554 | 59 | 11 | 0.9 | 0.0 | 0.00 | 0.00 | 0.00 | 84 | 1020.2 |
| 20260507150106 | 59 | 46 | 1.7 | 0.0 | 0.00 | 0.00 | 0.00 | 84 | 1020.2 |
| 20260507145528 | 58 | 338 | 2.6 | 0.0 | 0.00 | 0.00 | 0.00 | 84 | 1020.1 |
| 20260507145003 | 58 | 350 | 1.7 | 0.0 | 0.00 | 0.00 | 0.00 | 85 | 1019.4 |
| 20260507144503 | 58 | 55 | 0.9 | 0.0 | 0.00 | 0.00 | 0.00 | 86 | 1019.1 |
| 20260507144042 | 58 | 333 | 1.7 | 0.0 | 0.00 | 0.00 | 0.00 | 86 | 1019.6 |
| 20260507143520 | 58 | 348 | 1.7 | 0.0 | 0.00 | 0.00 | 0.00 | 86 | 1019.7 |
| 20260507143020 | 58 | 360 | 2.6 | 0.0 | 0.00 | 0.00 | 0.00 | 87 | 1019.3 |
| 20260507142600 | 58 | 355 | 1.7 | 0.0 | 0.00 | 0.00 | 0.00 | 87 | 1019.6 |
| 20260507142032 | 58 | 344 | 0.9 | 0.0 | 0.00 | 0.00 | 0.00 | 88 | 1019.8 |
| 20260507141548 | 58 | 337 | 0.9 | 0.0 | 0.00 | 0.00 | 0.00 | 89 | 1019.6 |
| 20260507141015 | 58 | 337 | 1.7 | 0.0 | 0.00 | 0.00 | 0.00 | 89 | 1019.7 |
| 20260507140551 | 58 | 337 | 1.7 | 0.0 | 0.00 | 0.00 | 0.00 | 89 | 1019.7 |
| 20260507140043 | 57 | 355 | 1.7 | 0.0 | 0.00 | 0.00 | 0.00 | 90 | 1019.6 |
| 20260507135515 | 57 | 56 | 1.7 | 0.0 | 0.00 | 0.00 | 0.00 | 90 | 1019.2 |
| 20260507135057 | 57 | 344 | 1.7 | 0.0 | 0.00 | 0.00 | 0.00 | 90 | 1019.4 |
| 20260507134600 | 57 | 344 | 1.7 | 0.0 | 0.00 | 0.00 | 0.00 | 91 | 1019.1 |
| 20260507134033 | 57 | 344 | 0.9 | 0.0 | 0.00 | 0.00 | 0.00 | 91 | 1019.3 |
| 20260507133510 | 57 | 342 | 1.7 | 0.0 | 0.00 | 0.00 | 0.00 | 91 | 1018.8 |
| 20260507133010 | 57 | 346 | 1.7 | 0.0 | 0.00 | 0.00 | 0.00 | 91 | 1019.3 |
| 20260507132547 | 57 | 348 | 1.7 | 0.0 | 0.00 | 0.00 | 0.00 | 91 | 1019.2 |
| 20260507132023 | 57 | 10 | 1.7 | 0.0 | 0.00 | 0.00 | 0.00 | 91 | 1019.2 |
| 20260507131534 | 57 | 346 | 1.7 | 0.0 | 0.00 | 0.00 | 0.00 | 92 | 1019.3 |
| 20260507131106 | 57 | 351 | 1.7 | 0.0 | 0.00 | 0.00 | 0.00 | 92 | 1019.4 |
| 20260507130540 | 56 | 315 | 1.7 | 0.0 | 0.00 | 0.00 | 0.00 | 92 | 1019.4 |
| 20260507130043 | 56 | 339 | 1.7 | 0.0 | 0.00 | 0.00 | 0.00 | 92 | 1019.4 |
| 20260507125518 | 56 | 321 | 1.7 | 0.0 | 0.00 | 0.00 | 0.00 | 92 | 1019.2 |
| 20260507125050 | 56 | 321 | 1.7 | 0.0 | 0.00 | 0.00 | 0.00 | 92 | 1019.1 |
| 20260507124540 | 56 | 322 | 1.7 | 0.0 | 0.00 | 0.00 | 0.00 | 92 | 1019.2 |
| 20260507124016 | 56 | 325 | 2.6 | 0.0 | 0.00 | 0.00 | 0.00 | 91 | 1019.2 |
| 20260507123552 | 56 | 314 | 2.6 | 0.0 | 0.00 | 0.00 | 0.00 | 92 | 1019.2 |
| 20260507123106 | 56 | 306 | 2.6 | 0.0 | 0.00 | 0.00 | 0.00 | 92 | 1019.0 |
| 20260507122529 | 56 | 326 | 3.5 | 0.0 | 0.00 | 0.00 | 0.00 | 91 | 1018.8 |
| 20260507122007 | 56 | 348 | 2.6 | 0.0 | 0.00 | 0.00 | 0.00 | 91 | 1018.9 |
| 20260507121508 | 57 | 350 | 2.6 | 0.0 | 0.00 | 0.00 | 0.00 | 91 | 1018.8 |
| 20260507121049 | 57 | 351 | 1.7 | 0.0 | 0.00 | 0.00 | 0.00 | 91 | 1018.6 |
| 20260507120519 | 57 | 355 | 1.7 | 0.0 | 0.00 | 0.00 | 0.00 | 91 | 1018.6 |
| 20260507120021 | 57 | 350 | 1.7 | 0.0 | 0.00 | 0.00 | 0.00 | 91 | 1018.2 |
| 20260507115557 | 57 | 349 | 1.7 | 0.0 | 0.00 | 0.00 | 0.00 | 91 | 1018.2 |
| 20260507115028 | 57 | 360 | 2.6 | 0.0 | 0.00 | 0.00 | 0.00 | 91 | 1018.2 |
| 20260507114535 | 57 | 319 | 2.6 | 0.0 | 0.00 | 0.00 | 0.00 | 91 | 1018.4 |
| 20260507114005 | 57 | 342 | 2.6 | 0.0 | 0.00 | 0.00 | 0.00 | 91 | 1018.5 |
| 20260507113541 | 57 | 334 | 2.6 | 0.0 | 0.00 | 0.00 | 0.00 | 91 | 1018.5 |
| 20260507113045 | 57 | 309 | 2.6 | 0.0 | 0.00 | 0.00 | 0.00 | 91 | 1018.4 |
| 20260507112521 | 57 | 329 | 2.6 | 0.0 | 0.00 | 0.00 | 0.00 | 91 | 1018.3 |
| 20260507112054 | 57 | 331 | 1.7 | 0.0 | 0.00 | 0.00 | 0.00 | 90 | 1018.3 |
| 20260507111600 | 57 | 331 | 1.7 | 0.0 | 0.00 | 0.00 | 0.00 | 91 | 1018.3 |
| 20260507111028 | 57 | 338 | 2.6 | 0.0 | 0.00 | 0.00 | 0.00 | 91 | 1018.2 |
| 20260507110502 | 57 | 360 | 1.7 | 0.0 | 0.00 | 0.00 | 0.00 | 90 | 1018.2 |
| 20260507110114 | 57 | 355 | 1.7 | 0.0 | 0.00 | 0.00 | 0.00 | 90 | 1018.1 |
| 20260507105533 | 57 | 340 | 1.7 | 0.0 | 0.00 | 0.00 | 0.00 | 90 | 1018.1 |
| 20260507105003 | 57 | 339 | 1.7 | 0.0 | 0.00 | 0.00 | 0.00 | 90 | 1018.2 |
| 20260507104508 | 57 | 334 | 1.7 | 0.0 | 0.00 | 0.00 | 0.00 | 90 | 1018.4 |
| 20260507104046 | 58 | 346 | 1.7 | 0.0 | 0.00 | 0.00 | 0.00 | 90 | 1018.1 |
| 20260507103522 | 58 | 323 | 1.7 | 0.0 | 0.00 | 0.00 | 0.00 | 90 | 1017.9 |
| 20260507103001 | 58 | 344 | 1.7 | 0.0 | 0.00 | 0.00 | 0.00 | 90 | 1017.8 |
| 20260507102538 | 58 | 341 | 0.9 | 0.0 | 0.00 | 0.00 | 0.00 | 90 | 1018.0 |
| 20260507102008 | 58 | 342 | 0.9 | 0.0 | 0.00 | 0.00 | 0.00 | 90 | 1018.4 |
| 20260507101518 | 58 | 315 | 1.7 | 0.0 | 0.00 | 0.00 | 0.00 | 90 | 1017.9 |
| 20260507101051 | 58 | 5 | 0.9 | 0.0 | 0.00 | 0.00 | 0.00 | 90 | 1017.9 |
| 20260507100523 | 58 | 360 | 0.9 | 0.0 | 0.00 | 0.00 | 0.00 | 90 | 1017.7 |
| 20260507100034 | 58 | 355 | 0.9 | 0.0 | 0.00 | 0.00 | 0.00 | 90 | 1017.6 |
| 20260507095506 | 58 | 355 | 0.9 | 0.0 | 0.00 | 0.00 | 0.00 | 90 | 1017.8 |
| 20260507095044 | 58 | 355 | 0.9 | 0.0 | 0.00 | 0.00 | 0.00 | 90 | 1018.0 |
| 20260507094533 | 58 | 355 | 0.9 | 0.0 | 0.00 | 0.00 | 0.00 | 90 | 1017.9 |
| 20260507094008 | 58 | 355 | 0.9 | 0.0 | 0.00 | 0.00 | 0.00 | 89 | 1017.9 |
| 20260507093543 | 58 | 343 | 0.9 | 0.0 | 0.00 | 0.00 | 0.00 | 89 | 1017.4 |
| 20260507093057 | 58 | 355 | 0.9 | 0.0 | 0.00 | 0.00 | 0.00 | 90 | 1017.3 |
| 20260507092526 | 58 | 347 | 0.9 | 0.0 | 0.00 | 0.00 | 0.00 | 89 | 1017.6 |
| 20260507092102 | 58 | 347 | 0.9 | 0.0 | 0.00 | 0.00 | 0.00 | 90 | 1017.6 |
| 20260507091642 | 58 | 347 | 0.9 | 0.0 | 0.00 | 0.00 | 0.00 | 89 | 1017.5 |
| 20260507091034 | 58 | 347 | 0.9 | 0.0 | 0.00 | 0.00 | 0.00 | 90 | 1016.9 |
| 20260507090511 | 58 | 347 | 0.9 | 0.0 | 0.00 | 0.00 | 0.00 | 89 | 1017.0 |
| 20260507090017 | 58 | 283 | 0.9 | 0.0 | 0.00 | 0.00 | 0.00 | 90 | 1017.1 |
| 20260507085555 | 58 | 279 | 0.9 | 0.0 | 0.00 | 0.00 | 0.00 | 90 | 1017.1 |
| 20260507085027 | 58 | 279 | 0.0 | 0.0 | 0.00 | 0.00 | 0.00 | 90 | 1016.7 |
| 20260507084538 | 58 | 279 | 0.0 | 0.0 | 0.00 | 0.00 | 0.00 | 90 | 1016.9 |
| 20260507084004 | 58 | 279 | 0.0 | 0.0 | 0.00 | 0.00 | 0.00 | 89 | 1017.0 |
| 20260507083540 | 58 | 279 | 0.0 | 0.0 | 0.00 | 0.00 | 0.00 | 89 | 1016.5 |
| 20260507083045 | 58 | 279 | 0.0 | 0.0 | 0.00 | 0.00 | 0.00 | 89 | 1016.5 |
| 20260507082519 | 58 | 279 | 0.0 | 0.0 | 0.00 | 0.00 | 0.00 | 89 | 1016.7 |
| 20260507082056 | 58 | 279 | 0.0 | 0.0 | 0.00 | 0.00 | 0.00 | 89 | 1016.5 |
| 20260507081609 | 58 | 9 | 0.0 | 0.0 | 0.00 | 0.00 | 0.00 | 89 | 1016.6 |
| 20260507081033 | 58 | 360 | 0.9 | 0.0 | 0.00 | 0.00 | 0.00 | 89 | 1016.6 |
| 20260507080514 | 58 | 360 | 0.9 | 0.0 | 0.00 | 0.00 | 0.00 | 89 | 1016.1 |
| 20260507080015 | 58 | 72 | 0.9 | 0.0 | 0.00 | 0.00 | 0.00 | 89 | 1015.9 |
| 20260507075550 | 58 | 9 | 0.9 | 0.0 | 0.00 | 0.00 | 0.00 | 89 | 1016.1 |
| 20260507075020 | 58 | 10 | 0.0 | 0.0 | 0.00 | 0.00 | 0.00 | 89 | 1016.3 |
| 20260507074538 | 58 | 360 | 0.9 | 0.0 | 0.00 | 0.00 | 0.00 | 89 | 1016.1 |
| 20260507074101 | 58 | 360 | 0.9 | 0.0 | 0.00 | 0.00 | 0.00 | 88 | 1015.7 |
| 20260507073537 | 58 | 323 | 0.9 | 0.0 | 0.00 | 0.00 | 0.00 | 88 | 1015.7 |
| 20260507073041 | 58 | 350 | 0.9 | 0.0 | 0.00 | 0.00 | 0.00 | 88 | 1016.1 |
| 20260507072513 | 58 | 355 | 1.7 | 0.0 | 0.00 | 0.00 | 0.00 | 88 | 1016.0 |
| 20260507072047 | 58 | 77 | 1.7 | 0.0 | 0.00 | 0.00 | 0.00 | 88 | 1016.2 |
| 20260507071556 | 58 | 69 | 1.7 | 0.0 | 0.00 | 0.00 | 0.00 | 88 | 1016.1 |
| 20260507071025 | 58 | 55 | 0.9 | 0.0 | 0.00 | 0.00 | 0.00 | 88 | 1016.0 |
| 20260507070602 | 59 | 70 | 0.9 | 0.0 | 0.00 | 0.00 | 0.00 | 87 | 1016.0 |
| 20260507070059 | 59 | 74 | 0.9 | 0.0 | 0.00 | 0.00 | 0.00 | 87 | 1016.0 |
| 20260507065524 | 59 | 144 | 0.0 | 0.0 | 0.00 | 0.00 | 0.00 | 87 | 1015.6 |
| 20260507065101 | 59 | 144 | 0.0 | 0.0 | 0.00 | 0.00 | 0.00 | 87 | 1015.6 |
| 20260507064602 | 59 | 49 | 0.0 | 0.0 | 0.00 | 0.00 | 0.00 | 87 | 1015.9 |
| 20260507064038 | 59 | 78 | 0.9 | 0.0 | 0.00 | 0.00 | 0.00 | 87 | 1015.6 |
| 20260507063508 | 59 | 300 | 0.9 | 0.0 | 0.00 | 0.00 | 0.00 | 86 | 1015.7 |
| 20260507063016 | 59 | 350 | 0.0 | 0.0 | 0.00 | 0.00 | 0.00 | 86 | 1015.7 |
| 20260507062555 | 59 | 350 | 0.0 | 0.0 | 0.00 | 0.00 | 0.00 | 86 | 1015.9 |
| 20260507062031 | 59 | 76 | 0.9 | 0.0 | 0.00 | 0.00 | 0.00 | 86 | 1016.1 |
| 20260507061533 | 59 | 74 | 0.0 | 0.0 | 0.00 | 0.00 | 0.00 | 86 | 1016.0 |
| 20260507061005 | 59 | 360 | 0.0 | 0.0 | 0.00 | 0.00 | 0.00 | 86 | 1016.1 |
| 20260507060549 | 59 | 360 | 0.0 | 0.0 | 0.00 | 0.00 | 0.00 | 86 | 1016.2 |
| 20260507060100 | 59 | 75 | 0.9 | 0.0 | 0.00 | 0.00 | 0.00 | 85 | 1016.1 |
| 20260507055519 | 59 | 75 | 0.9 | 0.0 | 0.00 | 0.00 | 0.00 | 85 | 1015.8 |
| 20260507055055 | 60 | 44 | 0.9 | 0.0 | 0.00 | 0.00 | 0.00 | 85 | 1015.7 |
| 20260507054600 | 60 | 360 | 0.9 | 0.0 | 0.00 | 0.00 | 0.00 | 85 | 1015.9 |
| 20260507054030 | 60 | 348 | 0.9 | 0.0 | 0.00 | 0.00 | 0.00 | 85 | 1015.6 |
| 20260507053502 | 60 | 56 | 0.9 | 0.0 | 0.00 | 0.00 | 0.00 | 85 | 1015.6 |
| 20260507053005 | 60 | 73 | 0.9 | 0.0 | 0.00 | 0.00 | 0.00 | 86 | 1015.7 |
| 20260507052545 | 60 | 94 | 0.9 | 0.0 | 0.00 | 0.00 | 0.00 | 86 | 1015.8 |
| 20260507052015 | 60 | 84 | 0.9 | 0.0 | 0.00 | 0.00 | 0.00 | 86 | 1015.8 |
| 20260507051526 | 60 | 85 | 0.9 | 0.0 | 0.00 | 0.00 | 0.00 | 86 | 1016.0 |
| 20260507051055 | 60 | 360 | 0.9 | 0.0 | 0.00 | 0.00 | 0.00 | 86 | 1015.9 |
| 20260507050531 | 60 | 348 | 0.9 | 0.0 | 0.00 | 0.00 | 0.00 | 86 | 1015.6 |
| 20260507050041 | 60 | 79 | 0.9 | 0.0 | 0.00 | 0.00 | 0.00 | 85 | 1015.8 |
| 20260507045506 | 60 | 70 | 0.9 | 0.0 | 0.00 | 0.00 | 0.00 | 85 | 1015.9 |
| 20260507045045 | 60 | 72 | 0.9 | 0.0 | 0.00 | 0.00 | 0.00 | 85 | 1015.7 |
| 20260507044535 | 60 | 9 | 0.9 | 0.0 | 0.00 | 0.00 | 0.00 | 85 | 1015.7 |
| 20260507044007 | 61 | 78 | 0.9 | 0.0 | 0.00 | 0.00 | 0.00 | 85 | 1015.6 |
| 20260507043547 | 61 | 343 | 0.9 | 0.0 | 0.00 | 0.00 | 0.00 | 85 | 1015.8 |
| 20260507043055 | 61 | 342 | 0.9 | 0.0 | 0.00 | 0.00 | 0.00 | 85 | 1015.9 |
| 20260507042521 | 61 | 355 | 1.7 | 0.0 | 0.00 | 0.00 | 0.00 | 85 | 1015.7 |
| 20260507042100 | 61 | 333 | 0.9 | 0.0 | 0.00 | 0.00 | 0.00 | 85 | 1015.8 |
| 20260507041604 | 61 | 317 | 0.9 | 0.0 | 0.00 | 0.00 | 0.00 | 85 | 1016.0 |
| 20260507041031 | 61 | 325 | 0.9 | 0.0 | 0.00 | 0.00 | 0.00 | 85 | 1016.2 |
| 20260507040504 | 61 | 325 | 0.9 | 0.0 | 0.00 | 0.00 | 0.00 | 85 | 1016.3 |
| 20260507040011 | 61 | 347 | 0.9 | 0.0 | 0.00 | 0.00 | 0.00 | 85 | 1016.1 |
| 20260507035546 | 61 | 350 | 0.9 | 0.0 | 0.00 | 0.00 | 0.00 | 85 | 1015.7 |
| 20260507035020 | 61 | 350 | 1.7 | 0.0 | 0.00 | 0.00 | 0.00 | 85 | 1015.6 |
| 20260507034539 | 61 | 31 | 0.9 | 0.0 | 0.00 | 0.00 | 0.00 | 85 | 1015.6 |
| 20260507034100 | 61 | 292 | 0.9 | 0.0 | 0.00 | 0.00 | 0.00 | 85 | 1015.8 |
| 20260507033533 | 61 | 292 | 0.9 | 0.0 | 0.00 | 0.00 | 0.00 | 86 | 1015.5 |
| 20260507033039 | 61 | 314 | 0.9 | 0.0 | 0.00 | 0.00 | 0.00 | 86 | 1015.7 |
| 20260507032505 | 61 | 309 | 1.7 | 0.0 | 0.00 | 0.00 | 0.00 | 87 | 1015.5 |
| 20260507032047 | 61 | 360 | 1.7 | 0.0 | 0.00 | 0.00 | 0.00 | 87 | 1015.2 |
| 20260507031536 | 61 | 348 | 0.9 | 0.0 | 0.00 | 0.00 | 0.00 | 86 | 1015.4 |
| 20260507031010 | 61 | 348 | 0.9 | 0.0 | 0.00 | 0.00 | 0.00 | 87 | 1015.2 |
| 20260507030544 | 61 | 348 | 0.9 | 0.0 | 0.00 | 0.00 | 0.00 | 87 | 1015.1 |
| 20260507030035 | 61 | 348 | 0.9 | 0.0 | 0.00 | 0.00 | 0.00 | 87 | 1015.5 |